| time (UTC) | temp F | wind direction | speed knots | gust knots | rain 1hr in | rain 24hr in | rain mn in | humidity % | barometer mb |
| 20260506120059 | 79 | 134 | 2.6 | 17.4 | 0.00 | 0.00 | 0.00 | 38 | 1005.1 |
| 20260506114604 | 79 | 142 | 7.8 | 14.8 | 0.00 | 0.00 | 0.00 | 37 | 1005.1 |
| 20260506113053 | 79 | 156 | 7.0 | 14.8 | 0.00 | 0.00 | 0.00 | 39 | 1005.1 |
| 20260506111550 | 78 | 142 | 3.5 | 13.0 | 0.00 | 0.00 | 0.00 | 41 | 1005.0 |
| 20260506110147 | 78 | 107 | 2.6 | 12.2 | 0.00 | 0.00 | 0.00 | 40 | 1005.2 |
| 20260506104547 | 78 | 119 | 7.0 | 14.8 | 0.00 | 0.00 | 0.00 | 40 | 1005.3 |
| 20260506103047 | 77 | 139 | 7.8 | 13.9 | 0.00 | 0.00 | 0.00 | 41 | 1005.4 |
| 20260506101545 | 77 | 117 | 1.7 | 16.5 | 0.00 | 0.00 | 0.00 | 41 | 1005.2 |
| 20260506100045 | 76 | 140 | 7.8 | 15.6 | 0.00 | 0.00 | 0.00 | 40 | 1005.4 |
| 20260506094607 | 75 | 123 | 5.2 | 14.8 | 0.00 | 0.00 | 0.00 | 41 | 1005.4 |
| 20260506093037 | 75 | 153 | 5.2 | 20.0 | 0.00 | 0.00 | 0.00 | 41 | 1005.5 |
| 20260506091534 | 74 | 132 | 6.1 | 14.8 | 0.00 | 0.00 | 0.00 | 43 | 1005.4 |
| 20260506090031 | 74 | 135 | 8.7 | 13.9 | 0.00 | 0.00 | 0.00 | 42 | 1005.3 |
| 20260506084529 | 73 | 139 | 9.6 | 13.9 | 0.00 | 0.00 | 0.00 | 43 | 1005.4 |
| 20260506083028 | 72 | 140 | 8.7 | 13.0 | 0.00 | 0.00 | 0.00 | 44 | 1005.3 |
| 20260506081526 | 72 | 157 | 7.8 | 17.4 | 0.00 | 0.00 | 0.00 | 43 | 1005.4 |
| 20260506073025 | 71 | 139 | 6.1 | 13.0 | 0.00 | 0.00 | 0.00 | 45 | 1005.2 |
| 20260506071529 | 71 | 150 | 7.8 | 18.2 | 0.00 | 0.00 | 0.00 | 45 | 1005.3 |
| 20260506061517 | 70 | 94 | 0.9 | 7.0 | 0.00 | 0.00 | 0.00 | 48 | 1005.1 |
| 20260506043048 | 57 | 144 | 0.0 | 0.9 | 0.00 | 0.00 | 0.00 | 63 | 1005.7 |
| 20260506041647 | 55 | 144 | 0.0 | 0.9 | 0.00 | 0.00 | 0.00 | 67 | 1005.8 |
| 20260506040058 | 54 | 139 | 0.0 | 1.7 | 0.00 | 0.00 | 0.00 | 68 | 1005.6 |
| 20260506034549 | 53 | 204 | 0.0 | 1.7 | 0.00 | 0.00 | 0.00 | 70 | 1005.7 |
| 20260506033044 | 53 | 142 | 0.0 | 0.9 | 0.00 | 0.00 | 0.00 | 70 | 1005.7 |
| 20260506031555 | 53 | 142 | 0.0 | 0.9 | 0.00 | 0.00 | 0.00 | 70 | 1005.8 |
| 20260506030043 | 53 | 142 | 0.0 | 0.9 | 0.00 | 0.00 | 0.00 | 70 | 1005.8 |
| 20260506024542 | 53 | 139 | 0.0 | 1.7 | 0.00 | 0.00 | 0.00 | 71 | 1005.9 |
| 20260506023041 | 53 | 132 | 0.0 | 1.7 | 0.00 | 0.00 | 0.00 | 72 | 1005.9 |
| 20260506021540 | 52 | 133 | 0.0 | 0.9 | 0.00 | 0.00 | 0.00 | 75 | 1005.9 |
| 20260506020040 | 52 | 130 | 0.0 | 0.9 | 0.00 | 0.00 | 0.00 | 77 | 1006.0 |
| 20260506014538 | 52 | 130 | 0.0 | 0.9 | 0.00 | 0.00 | 0.00 | 78 | 1005.9 |
| 20260506013037 | 52 | 130 | 0.0 | 0.9 | 0.00 | 0.00 | 0.00 | 78 | 1005.9 |
| 20260506011538 | 52 | 130 | 0.0 | 0.9 | 0.00 | 0.00 | 0.00 | 78 | 1005.9 |
| 20260506010041 | 53 | 130 | 0.0 | 0.9 | 0.00 | 0.00 | 0.00 | 77 | 1006.1 |
| 20260506004531 | 53 | 130 | 0.0 | 0.9 | 0.00 | 0.00 | 0.00 | 76 | 1006.0 |
| 20260506003029 | 54 | 130 | 0.0 | 0.9 | 0.00 | 0.00 | 0.00 | 74 | 1006.0 |
| 20260506001527 | 55 | 130 | 0.0 | 0.9 | 0.00 | 0.00 | 0.00 | 73 | 1005.9 |
| 20260506000025 | 55 | 130 | 0.0 | 0.9 | 0.00 | 0.00 | 0.00 | 72 | 1006.0 |
| 20260505234523 | 55 | 130 | 0.0 | 0.0 | 0.00 | 0.00 | 0.00 | 69 | 1005.9 |
| 20260505233021 | 55 | 130 | 0.0 | 0.0 | 0.00 | 0.00 | 0.00 | 68 | 1006.0 |
| 20260505231528 | 55 | 130 | 0.0 | 0.9 | 0.00 | 0.00 | 0.00 | 66 | 1006.0 |
| 20260505230026 | 56 | 130 | 0.0 | 0.0 | 0.00 | 0.00 | 0.00 | 68 | 1006.2 |
| 20260505224515 | 57 | 130 | 0.0 | 0.9 | 0.00 | 0.00 | 0.00 | 68 | 1006.1 |
| 20260505223015 | 57 | 130 | 0.0 | 0.9 | 0.00 | 0.00 | 0.00 | 67 | 1006.2 |
| 20260505221509 | 59 | 130 | 0.0 | 0.9 | 0.00 | 0.00 | 0.00 | 65 | 1006.2 |
| 20260505220004 | 60 | 130 | 0.0 | 0.9 | 0.00 | 0.00 | 0.00 | 63 | 1006.2 |
| 20260505214503 | 62 | 128 | 0.0 | 0.9 | 0.00 | 0.00 | 0.00 | 60 | 1006.3 |
| 20260505211503 | 65 | 124 | 0.0 | 0.9 | 0.00 | 0.00 | 0.00 | 52 | 1006.4 |
| 20260505210002 | 65 | 146 | 0.0 | 0.9 | 0.00 | 0.00 | 0.00 | 46 | 1006.4 |
| 20260505204501 | 66 | 144 | 0.0 | 1.7 | 0.00 | 0.00 | 0.00 | 43 | 1006.3 |
| 20260505203101 | 66 | 144 | 0.0 | 0.9 | 0.00 | 0.00 | 0.00 | 43 | 1006.2 |
| 20260505203002 | 67 | 144 | 0.0 | 0.9 | 0.00 | 0.00 | 0.00 | 43 | 1006.2 |
| 20260505201602 | 67 | 144 | 0.0 | 1.7 | 0.00 | 0.00 | 0.00 | 43 | 1006.2 |
| 20260505200103 | 68 | 144 | 0.0 | 1.7 | 0.00 | 0.00 | 0.00 | 39 | 1006.1 |
| 20260505194619 | 68 | 144 | 0.0 | 0.9 | 0.00 | 0.00 | 0.00 | 39 | 1006.1 |
| 20260505193058 | 69 | 144 | 0.0 | 0.9 | 0.00 | 0.00 | 0.00 | 38 | 1006.0 |
| 20260505191558 | 70 | 144 | 0.0 | 1.7 | 0.00 | 0.00 | 0.00 | 37 | 1006.0 |
| 20260505190057 | 71 | 128 | 0.0 | 1.7 | 0.00 | 0.00 | 0.00 | 36 | 1005.9 |
| 20260505184557 | 72 | 119 | 0.0 | 1.7 | 0.00 | 0.00 | 0.00 | 35 | 1005.8 |
| 20260505183056 | 73 | 137 | 0.0 | 1.7 | 0.00 | 0.00 | 0.00 | 34 | 1005.8 |
| 20260505181559 | 73 | 128 | 0.0 | 2.6 | 0.00 | 0.00 | 0.00 | 34 | 1005.7 |
| 20260505180057 | 74 | 126 | 0.9 | 3.5 | 0.00 | 0.00 | 0.00 | 33 | 1005.6 |
| 20260505174557 | 75 | 122 | 0.9 | 3.5 | 0.00 | 0.00 | 0.00 | 33 | 1005.5 |
| 20260505173056 | 76 | 131 | 0.9 | 4.3 | 0.00 | 0.00 | 0.00 | 32 | 1005.5 |
| 20260505171554 | 76 | 64 | 0.9 | 3.5 | 0.00 | 0.00 | 0.00 | 32 | 1005.5 |
| 20260505170054 | 77 | 65 | 0.0 | 2.6 | 0.00 | 0.00 | 0.00 | 31 | 1005.5 |
| 20260505164614 | 78 | 107 | 0.9 | 3.5 | 0.00 | 0.00 | 0.00 | 30 | 1005.4 |
| 20260505163054 | 78 | 157 | 0.9 | 4.3 | 0.00 | 0.00 | 0.00 | 29 | 1005.6 |
| 20260505161553 | 80 | 101 | 0.9 | 7.8 | 0.00 | 0.00 | 0.00 | 28 | 1005.5 |
| 20260505153042 | 81 | 125 | 1.7 | 8.7 | 0.00 | 0.00 | 0.00 | 28 | 1005.9 |
| 20260505124525 | 82 | 136 | 1.7 | 13.0 | 0.00 | 0.00 | 0.00 | 27 | 1007.6 |
| 20260505123023 | 82 | 123 | 1.7 | 12.2 | 0.00 | 0.00 | 0.00 | 27 | 1007.7 |
| 20260505121521 | 81 | 128 | 0.9 | 13.0 | 0.00 | 0.00 | 0.00 | 26 | 1007.9 |